Regional Weather Roundup
Issued by NWS

Home | Current Version | Previous Version | Text Only | Print | Product List | Glossary On
Versions: 1 2 3 4 5 6 7 8 9 10 11 12 13 14 15 16 17 18 19 20 21 22 23 24 25 26 27 28 29 30 31 32 33 34 35 36 37 38 39 40 41 42 43 44 45 46 47 48 49 50
000
ASUS43 KLOT 190210
RWRIL

ILLINOIS REGIONAL WEATHER ROUNDUP
NATIONAL WEATHER SERVICE CHICAGO/ROMEOVILLE IL
900 PM CDT FRI APR 18 2014

NOTE: "FAIR" INDICATES FEW OR NO CLOUDS BELOW 12,000 FEET WITH NO
SIGNIFICANT WEATHER AND/OR OBSTRUCTIONS TO VISIBILITY.

* THESE STATIONS ARE NOT UNDER NWS QUALITY CONTROL. THEY ALSO MAY NOT
  REPORT WEATHER SUCH AS PRECIPITATION OR FOG.

ILZ001-002-007-009-015-016-024-190300-
NORTHWEST ILLINOIS

CITY           SKY/WX    TMP DP  RH WIND       PRES   REMARKS
MOLINE         CLEAR     51  31  46 E5        30.26R
STERLING*      CLEAR     48  36  61 NE7       30.28R
SAVANNA*       CLEAR     49  32  51 E8        30.28R
$$

ILZ003-004-008-010-011-017-018-190300-
NORTH CENTRAL ILLINOIS

CITY           SKY/WX    TMP DP  RH WIND       PRES   REMARKS
ROCKFORD       CLEAR     45  33  63 E13       30.34R
FREEPORT*      CLEAR     46  33  60 NE8       30.32R
ROCHELLE*      CLEAR     46  34  63 E14       30.32R
DE KALB*       CLEAR     39  32  75 E14       30.34R WCI  31
PERU*          CLEAR     50  38  62 E9        30.30R
$$

ILZ005-006-012>014-019>023-190300-
NORTHEAST ILLINOIS

CITY           SKY/WX    TMP DP  RH WIND       PRES   REMARKS
CHICAGO-OHARE  CLEAR     38  26  62 NE10      30.37R WCI  31
CHICAGO-MIDWAY CLEAR     40  30  67 NE13      30.36R
AURORA         CLEAR     41  31  67 NE16      30.34R
LANSING*       CLEAR     37  30  73 NE13      30.37R WCI  29
WAUKEGAN       CLEAR     35  26  69 N8        30.37R WCI  29
DUPAGE AIRPORT CLEAR     38  29  70 NE12      30.35R WCI  30
KANKAKEE*      CLEAR     40  34  77 NE12G17   30.33R
WHEELING       CLEAR     37  29  72 NE7       30.38R WCI  32
MORRIS*        CLEAR     43  31  61 NE12      30.33R
ROMEOVILLE*    CLEAR     39  31  70 NE16      30.35R WCI  31
NORTHERLY ISL    N/A     38  31  76 N14         N/A  WCI  30
$$

LMZ740>746-190300-
SOUTHERN LAKE MICHIGAN

STATION/POSITION SKY/WX   TEMP    WIND        PRES    VSBY  WAVE
                          AIR SEA DIR/SP/G                  HT/PER
                          (F)     (DEG/KT/KT) (MB)    (MI)  (FT/S)
WAUKEGAN HARBOR            37      20/ 15/ 18 1029.5S
HARRISON CRIB              37      20/ 13/ 17   N/A
BURNHAM HARBOR             38      20/ 13/ 17   N/A
CALUMET HARBOR             37      20/ 10/ 15 1028.9R
MICHIGAN CITY              37      20/ 16/ 19   N/A
$$

ILZ025>027-034>036-040-047-049-050-058-095>099-190300-
WEST-CENTRAL ILLINOIS

CITY           SKY/WX    TMP DP  RH WIND       PRES   REMARKS
QUINCY         CLEAR     58  31  35 E6        30.23R
GALESBURG*     CLEAR     48  31  52 NE6       30.25S
MACOMB*        CLEAR     51  34  52 E7        30.26R
JACKSONVILLE*  CLEAR     54  30  40 N5        30.25R
PITTSFIELD*    CLEAR     59  31  33 NE5       30.24R
$$

ILZ028>032-037-038-041>044-048-051>054-059>061-190300-
CENTRAL ILLINOIS

CITY           SKY/WX    TMP DP  RH WIND       PRES   REMARKS
PONTIAC        CLEAR     48  39  71 E13       30.30R
BLOOMINGTON    CLEAR     50  38  63 E12       30.28R
DECATUR        CLEAR     54  33  45 NE5       30.25R
PEORIA         CLEAR     58  27  30 NE5       30.27R
LACON*         CLEAR     53  36  52 E13G18    30.28R
LINCOLN*       CLEAR     54  28  37 CALM      30.25R
SPRINGFIELD    CLEAR     57  28  33 NE5       30.25R
TAYLORVILLE    CLEAR     55  36  47 CALM      30.25R
$$

ILZ033-039-045-046-055>057-062-063-190300-
EAST-CENTRAL ILLINOIS

CITY           SKY/WX    TMP DP  RH WIND       PRES   REMARKS
CHAMPAIGN      CLEAR     56  38  50 NE16G22   30.27R
RANTOUL*       CLEAR     54  39  56 NE12      30.29R
MATTOON        CLEAR     57  38  48 NE6       30.24R
PARIS*         CLEAR     58  37  46 N9        30.27R
$$

ILZ079-100>102-190300-
SOUTHWEST ILLINOIS

CITY           SKY/WX    TMP DP  RH WIND       PRES   REMARKS
ALTON          CLEAR     59  37  44 VRB5      30.23R
BELLEVILLE     CLEAR     57  45  63 N2        30.22R
CAHOKIA*       CLEAR     59  45  59 E5        30.22R
SPARTA*        CLEAR     57  46  67 CALM      30.24R
$$

ILZ064>066-069>071-074>076-080>082-084>086-088>090-092>094-190300-
SOUTH-CENTRAL ILLINOIS

CITY           SKY/WX    TMP DP  RH WIND       PRES   REMARKS
CARBONDALE     CLEAR     61  42  49 N5        30.21R
CAIRO*         CLEAR     64  46  51 NE3       30.20R
MARION         CLEAR     57  46  67 CALM      30.21R
MT. VERNON     CLEAR     54  37  54 N3        30.23S
CENTRALIA*       N/A     57  44  60 CALM      30.24R
SALEM*         CLEAR     62  46  56 CALM      30.24R
METROPOLIS*    CLEAR     62  40  44 CALM      30.19S
$$

ILZ067-068-072-073-078-083-087-091-190300-
SOUTHEAST ILLINOIS

CITY           SKY/WX    TMP DP  RH WIND       PRES   REMARKS
FAIRFIELD*     CLEAR     63  46  55 N5        30.22S
HARRISBURG*    CLEAR     59  44  57 N5        30.22R
ROBINSON*      CLEAR     57  48  71 N5        30.24R
CARMI*         CLEAR     59  49  67 N6        30.21R
$$

ABBREVIATIONS USED IN REMARKS
   TC - TEMPERATURE IN CELSIUS
  WCI - WIND CHILL INDEX
   HX - HEAT INDEX
  VSB - VISIBILITY
$$




USA.gov is the U.S. government's official web portal to all federal, state and local government web resources and services.